�������l�o���
Date,Time,MP-1(��Sv/h),MP-2(��Sv/h),MP-3(��Sv/h),MP-4(��Sv/h),MP-5(��Sv/h),MP-6(��Sv/h),MP-7(��Sv/h),����,����(m/s),���J
2015/03/04,00:00,0.541,0.332,0.557,0.510,0.550,0.257,0.229,�k��,0.5,�L
2015/03/04,00:10,0.541,0.333,0.555,0.509,0.553,0.256,0.229,�k,1.3,�L
2015/03/04,00:20,0.540,0.331,0.553,0.508,0.551,0.255,0.227,�k,1.7,�L
2015/03/04,00:30,0.539,0.331,0.553,0.506,0.549,0.255,0.227,�k��,1.9,�L
2015/03/04,00:40,0.540,0.332,0.553,0.509,0.549,0.255,0.227,�k�k��,2.4,�L
2015/03/04,00:50,0.539,0.333,0.553,0.507,0.550,0.255,0.227,�k�k��,2.9,�L
2015/03/04,01:00,0.539,0.331,0.552,0.504,0.548,0.254,0.226,�k,3.3,�L
2015/03/04,01:10,0.538,0.332,0.552,0.505,0.547,0.256,0.225,�k,3.1,�L
2015/03/04,01:20,0.538,0.331,0.551,0.508,0.550,0.255,0.226,�k,3.2,�L
2015/03/04,01:30,0.539,0.331,0.549,0.505,0.549,0.254,0.225,�k,3.9,�L
2015/03/04,01:40,0.537,0.330,0.550,0.504,0.547,0.255,0.226,�k,4.0,�L
2015/03/04,01:50,0.535,0.330,0.550,0.505,0.548,0.254,0.226,�k,3.9,�L
2015/03/04,02:00,0.537,0.330,0.550,0.505,0.549,0.256,0.226,�k�k��,3.5,�L
2015/03/04,02:10,0.537,0.330,0.548,0.504,0.548,0.255,0.226,�k�k��,3.2,�L
2015/03/04,02:20,0.535,0.330,0.548,0.503,0.548,0.256,0.226,�k,3.1,�L
2015/03/04,02:30,0.535,0.333,0.546,0.502,0.546,0.256,0.226,�k�k��,2.8,�L
2015/03/04,02:40,0.536,0.331,0.547,0.502,0.549,0.255,0.224,�k,2.8,�L
2015/03/04,02:50,0.532,0.329,0.546,0.499,0.548,0.255,0.225,�k,3.1,�L
2015/03/04,03:00,0.533,0.329,0.544,0.499,0.545,0.255,0.226,�k,3.6,�L
2015/03/04,03:10,0.534,0.329,0.543,0.501,0.546,0.255,0.225,�k,3.6,�L
2015/03/04,03:20,0.533,0.329,0.543,0.498,0.546,0.254,0.225,�k,4.2,�L
2015/03/04,03:30,0.531,0.328,0.541,0.498,0.544,0.255,0.224,�k,4.9,�L
2015/03/04,03:40,0.533,0.329,0.540,0.497,0.546,0.255,0.224,�k,5.3,�L
2015/03/04,03:50,0.533,0.330,0.541,0.496,0.544,0.254,0.226,�k,5.8,�L
2015/03/04,04:00,0.529,0.331,0.542,0.497,0.547,0.254,0.225,�k,5.6,�L
2015/03/04,04:10,0.532,0.330,0.542,0.495,0.547,0.255,0.224,�k�k��,4.8,�L
2015/03/04,04:20,0.533,0.328,0.539,0.495,0.546,0.254,0.225,�k,4.6,�L
2015/03/04,04:30,0.532,0.328,0.541,0.496,0.545,0.253,0.224,�k,5.2,�L
2015/03/04,04:40,0.531,0.329,0.541,0.496,0.546,0.253,0.223,�k,3.9,�L
2015/03/04,04:50,0.532,0.329,0.540,0.495,0.545,0.252,0.222,�k,4.5,�L
2015/03/04,05:00,0.532,0.329,0.539,0.496,0.544,0.251,0.221,�k,3.8,�L
2015/03/04,05:10,0.531,0.326,0.538,0.495,0.543,0.250,0.221,�k,5.0,�L
2015/03/04,05:20,0.528,0.327,0.540,0.496,0.544,0.251,0.220,�k,5.5,�L
2015/03/04,05:30,0.531,0.327,0.537,0.496,0.545,0.251,0.221,�k,6.5,�L
2015/03/04,05:40,0.529,0.326,0.537,0.494,0.545,0.251,0.220,�k�k��,5.0,�L
2015/03/04,05:50,0.531,0.326,0.540,0.495,0.543,0.250,0.221,�k,5.9,�L
2015/03/04,06:00,0.529,0.328,0.540,0.492,0.546,0.251,0.221,�k�k��,6.7,�L
2015/03/04,06:10,0.532,0.329,0.539,0.493,0.546,0.251,0.222,�k�k��,8.4,�L
2015/03/04,06:20,0.530,0.328,0.537,0.495,0.545,0.252,0.222,�k�k��,7.0,�L
2015/03/04,06:30,0.530,0.328,0.540,0.493,0.543,0.251,0.223,�k�k��,7.3,�L
2015/03/04,06:40,0.530,0.329,0.539,0.491,0.544,0.253,0.222,�k�k��,8.1,�L
2015/03/04,06:50,0.531,0.330,0.537,0.490,0.544,0.254,0.223,�k�k��,9.0,�L
2015/03/04,07:00,0.529,0.327,0.535,0.490,0.544,0.256,0.223,�k�k��,10.1,�L
2015/03/04,07:10,0.529,0.329,0.534,0.491,0.543,0.254,0.223,�k�k��,9.4,�L
2015/03/04,07:20,0.528,0.327,0.536,0.492,0.543,0.253,0.223,�k�k��,10.2,�L
2015/03/04,07:30,0.529,0.330,0.537,0.490,0.544,0.254,0.223,�k�k��,9.8,�L
2015/03/04,07:40,0.528,0.331,0.536,0.492,0.545,0.253,0.222,�k�k��,9.2,�L
2015/03/04,07:50,0.530,0.328,0.535,0.491,0.545,0.253,0.223,�k�k��,9.2,�L
2015/03/04,08:00,0.528,0.328,0.534,0.488,0.543,0.252,0.224,�k�k��,9.5,�L
2015/03/04,08:10,0.529,0.328,0.536,0.489,0.544,0.252,0.222,�k�k��,8.5,�L
2015/03/04,08:20,0.527,0.327,0.534,0.488,0.546,0.253,0.223,�k�k��,8.7,�L
2015/03/04,08:30,0.525,0.326,0.534,0.490,0.543,0.251,0.222,�k,9.2,�L
2015/03/04,08:40,0.527,0.327,0.535,0.488,0.541,0.252,0.222,�k�k��,9.9,�L
2015/03/04,08:50,0.526,0.327,0.535,0.488,0.543,0.253,0.222,�k�k��,10.4,�L
2015/03/04,09:00,0.525,0.327,0.534,0.490,0.544,0.252,0.223,�k�k��,10.4,�L
2015/03/04,09:10,0.527,0.327,0.534,0.490,0.544,0.252,0.221,�k�k��,10.7,�L
2015/03/04,09:20,0.529,0.326,0.537,0.489,0.545,0.252,0.221,�k�k��,9.2,�L
2015/03/04,09:30,0.528,0.328,0.536,0.489,0.547,0.251,0.220,�k�k��,7.8,�L
2015/03/04,09:40,0.528,0.328,0.535,0.489,0.547,0.251,0.220,�k,7.7,�L
2015/03/04,09:50,0.528,0.327,0.536,0.491,0.544,0.251,0.221,�k,8.0,��
2015/03/04,10:00,0.529,0.326,0.538,0.490,0.543,0.251,0.221,�k,7.3,��
2015/03/04,10:10,0.526,0.326,0.535,0.491,0.543,0.249,0.219,�k,7.9,��
2015/03/04,10:20,0.526,0.325,0.535,0.491,0.542,0.248,0.219,�k,6.7,��
2015/03/04,10:30,0.530,0.325,0.537,0.490,0.542,0.249,0.219,�k,6.7,��
2015/03/04,10:40,0.526,0.324,0.537,0.490,0.544,0.248,0.217,�k,4.8,��
2015/03/04,10:50,0.527,0.325,0.535,0.491,0.542,0.247,0.217,�k,3.2,��
2015/03/04,11:00,0.528,0.323,0.538,0.489,0.543,0.247,0.216,�k,3.4,��
2015/03/04,11:10,0.527,0.323,0.535,0.492,0.543,0.247,0.216,�k,3.4,��
2015/03/04,11:20,0.526,0.324,0.535,0.491,0.539,0.246,0.217,�k,4.2,��
2015/03/04,11:30,0.526,0.323,0.535,0.491,0.545,0.248,0.217,�k�k��,4.2,��
2015/03/04,11:40,0.525,0.324,0.533,0.491,0.542,0.246,0.218,�k�k��,4.5,��
2015/03/04,11:50,0.526,0.322,0.536,0.492,0.546,0.247,0.217,�k�k��,4.0,��
2015/03/04,12:00,0.527,0.323,0.533,0.489,0.541,0.247,0.219,�k�k��,3.8,��
2015/03/04,12:10,0.528,0.322,0.538,0.492,0.545,0.247,0.219,�k�k��,3.3,��
2015/03/04,12:20,0.528,0.324,0.535,0.492,0.543,0.248,0.218,�k,3.9,��
2015/03/04,12:30,0.527,0.323,0.540,0.495,0.546,0.248,0.219,�k��,5.9,��
2015/03/04,12:40,0.528,0.324,0.538,0.491,0.542,0.248,0.219,���k��,7.9,��
2015/03/04,12:50,0.527,0.324,0.540,0.496,0.547,0.247,0.220,���k��,9.7,��
2015/03/04,13:00,0.529,0.323,0.538,0.493,0.540,0.248,0.219,��,9.2,��
2015/03/04,13:10,0.526,0.324,0.541,0.498,0.549,0.247,0.218,���k��,12.3,��
2015/03/04,13:20,0.532,0.324,0.541,0.494,0.544,0.248,0.219,��,16.3,��
2015/03/04,13:30,0.528,0.325,0.541,0.497,0.549,0.248,0.219,���k��,15.5,��
2015/03/04,13:40,0.533,0.324,0.542,0.497,0.543,0.249,0.220,���k��,12.4,��
2015/03/04,13:50,0.530,0.326,0.546,0.499,0.550,0.250,0.218,���k��,11.4,��
2015/03/04,14:00,0.535,0.325,0.541,0.497,0.544,0.249,0.219,���k��,14.9,��
2015/03/04,14:10,0.531,0.327,0.547,0.497,0.547,0.251,0.220,���k��,10.3,��
2015/03/04,14:20,0.532,0.324,0.542,0.499,0.546,0.248,0.220,���k��,12.1,��
2015/03/04,14:30,0.533,0.327,0.547,0.499,0.548,0.251,0.219,���k��,12.6,��
2015/03/04,14:40,0.532,0.325,0.543,0.499,0.546,0.248,0.219,���k��,10.5,��
2015/03/04,14:50,0.535,0.328,0.547,0.500,0.547,0.250,0.221,���k��,7.8,��
2015/03/04,15:00,0.534,0.327,0.547,0.499,0.548,0.250,0.220,���k��,7.8,��
2015/03/04,15:10,0.537,0.326,0.546,0.502,0.549,0.249,0.220,���k��,6.8,��
2015/03/04,15:20,0.531,0.326,0.547,0.502,0.549,0.249,0.221,���k��,4.5,��
2015/03/04,15:30,0.537,0.327,0.544,0.501,0.548,0.249,0.220,�쐼,4.2,��
2015/03/04,15:40,0.531,0.328,0.547,0.500,0.548,0.251,0.220,�쐼,4.0,��
2015/03/04,15:50,0.535,0.327,0.545,0.499,0.550,0.248,0.220,��,4.9,��
2015/03/04,16:00,0.535,0.327,0.548,0.501,0.548,0.250,0.220,��,2.8,��
2015/03/04,16:10,0.537,0.327,0.547,0.499,0.550,0.248,0.221,��쐼,4.2,��
2015/03/04,16:20,0.536,0.328,0.546,0.502,0.550,0.250,0.220,��,5.1,��
2015/03/04,16:30,0.536,0.328,0.548,0.503,0.549,0.248,0.220,��쐼,2.2,��
2015/03/04,16:40,0.537,0.328,0.544,0.501,0.552,0.249,0.221,��쐼,2.7,��
2015/03/04,16:50,0.533,0.326,0.549,0.503,0.549,0.250,0.222,���쐼,1.7,��
2015/03/04,17:00,0.535,0.327,0.547,0.500,0.549,0.249,0.222,��,1.4,��
2015/03/04,17:10,0.533,0.328,0.545,0.501,0.547,0.250,0.221,��,1.4,��
2015/03/04,17:20,0.533,0.326,0.548,0.501,0.546,0.249,0.222,���쐼,2.4,��
2015/03/04,17:30,0.536,0.326,0.545,0.501,0.548,0.250,0.220,���쐼,3.3,��
2015/03/04,17:40,0.535,0.329,0.546,0.501,0.548,0.251,0.222,��,1.7,��
2015/03/04,17:50,0.532,0.328,0.546,0.502,0.547,0.250,0.221,���k��,1.0,��
2015/03/04,18:00,0.536,0.327,0.544,0.500,0.550,0.250,0.221,���k��,1.8,��
2015/03/04,18:10,0.534,0.326,0.547,0.499,0.548,0.250,0.221,���쐼,1.1,��
2015/03/04,18:20,0.534,0.326,0.546,0.501,0.546,0.250,0.221,���k��,1.4,��
2015/03/04,18:30,0.534,0.327,0.545,0.500,0.548,0.251,0.222,���k��,1.9,��
2015/03/04,18:40,0.532,0.327,0.547,0.502,0.546,0.251,0.220,�k�k��,1.4,��
2015/03/04,18:50,0.535,0.328,0.545,0.503,0.545,0.250,0.222,�k�k��,2.0,��
2015/03/04,19:00,0.537,0.327,0.546,0.500,0.547,0.250,0.222,�k�k��,0.7,��
2015/03/04,19:10,0.534,0.328,0.548,0.501,0.546,0.251,0.222,��,0.7,��
2015/03/04,19:20,0.535,0.327,0.548,0.503,0.546,0.251,0.222,���쐼,1.4,��
2015/03/04,19:30,0.535,0.327,0.546,0.501,0.548,0.250,0.221,�쐼,1.1,��
2015/03/04,19:40,0.533,0.326,0.549,0.502,0.547,0.251,0.221,-,CALM,��
2015/03/04,19:50,0.536,0.325,0.546,0.504,0.546,0.250,0.222,-,CALM,��
2015/03/04,20:00,0.536,0.327,0.545,0.501,0.547,0.249,0.221,��쓌,1.0,��
2015/03/04,20:10,0.534,0.327,0.547,0.501,0.547,0.250,0.222,��쐼,3.2,��
2015/03/04,20:20,0.537,0.327,0.549,0.501,0.546,0.251,0.222,��,2.5,��
2015/03/04,20:30,0.535,0.328,0.545,0.501,0.548,0.249,0.220,-,CALM,��
2015/03/04,20:40,0.533,0.328,0.547,0.501,0.545,0.250,0.222,�쐼,2.3,��
2015/03/04,20:50,0.536,0.328,0.549,0.502,0.546,0.249,0.222,���쐼,4.1,��
2015/03/04,21:00,0.533,0.328,0.546,0.501,0.550,0.249,0.222,��,2.8,��
2015/03/04,21:10,0.535,0.326,0.550,0.501,0.546,0.251,0.222,��,3.0,��
2015/03/04,21:20,0.536,0.327,0.548,0.503,0.547,0.250,0.222,�k��,5.0,��
2015/03/04,21:30,0.534,0.328,0.546,0.503,0.549,0.251,0.220,���k��,6.3,��
2015/03/04,21:40,0.537,0.328,0.551,0.502,0.549,0.251,0.221,���k��,7.0,��
2015/03/04,21:50,0.536,0.327,0.550,0.504,0.548,0.251,0.223,���k��,7.3,��
2015/03/04,22:00,0.534,0.327,0.551,0.503,0.549,0.251,0.221,���k��,10.7,��
2015/03/04,22:10,0.536,0.327,0.548,0.501,0.548,0.251,0.221,���k��,9.2,��
2015/03/04,22:20,0.537,0.328,0.550,0.504,0.548,0.251,0.221,��,8.1,��
2015/03/04,22:30,0.537,0.329,0.549,0.504,0.548,0.252,0.223,���k��,13.4,��
2015/03/04,22:40,0.536,0.329,0.547,0.502,0.550,0.250,0.222,���k��,9.0,��
2015/03/04,22:50,0.538,0.329,0.551,0.504,0.547,0.252,0.222,���k��,10.6,��
2015/03/04,23:00,0.537,0.328,0.552,0.502,0.547,0.253,0.223,��,9.8,��
2015/03/04,23:10,0.537,0.328,0.549,0.504,0.550,0.251,0.222,��,9.8,��
2015/03/04,23:20,0.536,0.328,0.549,0.504,0.548,0.251,0.223,�k��,4.2,��
2015/03/04,23:30,0.537,0.327,0.551,0.505,0.548,0.252,0.222,�k�k��,3.4,��
2015/03/04,23:40,0.536,0.329,0.548,0.503,0.550,0.251,0.222,��,8.7,��
2015/03/04,23:50,0.535,0.328,0.549,0.504,0.549,0.251,0.223,���k��,7.9,��
